sat.trackr.live / text

‹ back to catalog

STARLINK-4078

NORAD 52689 · 2022-053AK

PAYLOAD ACTIVE UNKNOWN

§ Identity

Operator
Country
US
Launch date
2022-05-18
Launch site
AFETR
Launch vehicle
Mass (kg)
RCS (m²)

Purposes: comms

External: N2YO · Heavens-Above · Gunter

§ Orbital elements

Epoch: 2026-08-05T00:59:09.263616Z

Period
88.61 min
Inclination
53.1904°
Eccentricity
0.0013855
Mean motion
16.25151056 rev/d
Perigee alt
196.5 km
Apogee alt
214.7 km
Semi-major
6,583.7 km
B*
1.5438e-3
RAAN
72.1748°
Arg perigee
259.3281°
Mean anomaly
100.6201°
Rev number
23,532

§ Raw data

STARLINK-40781 52689U 22053AK  26217.04107944  .04782321  11921-4  15438-2 0  99972 52689  53.1904  72.1748 0013855 259.3281 100.6201 16.25151056235322

JSON: /api/v1/satellites/52689 · /tle

For live sub-satellite position, see the globe view (requires WebGL).

§ Visibility from observer

Set your observer location to see the next 7 days of passes ≥ 10°. The values pass through the URL so the page stays shareable.

No JS? Fill the form by hand. The geolocation button needs JavaScript.